Location: Castifao
(42.5040°N, 9.1124°E)
Time: 14:39:31
(UTC+00:00)

ATLAS 5 CENTAUR R/B - Pass Details

Date: 23 January 2020
Orbit: 283 x 14332 km, 60.7° (Epoch: 22 February)

Event Time Altitude Azimuth Distance (km) Brightness Sun altitude
Rises 19:07:38 0° 323° (NW) 3,095 6.1 -29.8°
Reaches altitude 10° 19:09:07 10° 328° (NNW) 2,533 5.5 -30.1°
Maximum altitude 19:14:43 63° 51° (NE) 1,888 4.1 -31.1°
Enters shadow 19:16:55 54° 95° (E) 2,450 4.5 -31.5°
Exits shadow 19:41:03 - 133° (SE) 10,387 7.8 -36.0°
Sets 19:54:26 0° 137° (SE) 13,740 8.5 -38.4°
